Hourly Data Report for October 04, 2017

All times are specified in Local Standard Time (LST). Add 1 hour to adjust for Daylight Saving Time where and when it is observed.

DELINE CS
NORTHWEST TERRITORIES

65°12'31.090" N
123°26'00.070" W
212.80 m
2201022
71503
XDE

Download Data

Hourly Data (October 2017)
Hourly Data Report for October 4, 2017
Temp Definition
°C
Dew Point Temp Definition
°C
Rel Hum Definition
%
Wind Dir Definition
10's deg

Wind Spd Definition
km/h
Visibility Definition
km
Stn Press Definition
kPa
Hmdx Definition


Wind Chill Definition


Weather Definition


TIME
00:00 2.0 0.1 87 11 8   99.47     LegendNANA
01:00 1.8 0.4 90 11 9   99.46     LegendNANA
02:00 2.3 0.5 88 12 13   99.47     LegendNANA
03:00 2.4 0.7 89 12 14   99.46     LegendNANA
04:00 2.4 1.0 90 10 14   99.43     LegendNANA
05:00 2.2 0.8 91 9 11   99.42     LegendNANA
06:00 2.4 1.1 91 9 12   99.38     LegendNANA
07:00 2.8 1.6 92 10 15   99.38     LegendNANA
08:00 2.9 1.6 92 10 16   99.36     LegendNANA
09:00 3.0 1.8 92 10 17   99.34     LegendNANA
10:00 3.4 2.0 91 10 17   99.36     LegendNANA
11:00 3.6 2.1 90 9 24   99.31     LegendNANA
12:00 3.2 1.7 90 9 29   99.31     LegendNANA
13:00 3.8 2.0 88 9 27   99.28     LegendNANA
14:00 4.1 2.0 87 10 28   99.26     LegendNANA
15:00 4.1 2.4 88 9 26   99.24     LegendNANA
16:00 4.1 2.1 87 10 27   99.19     LegendNANA
17:00 4.0 1.9 86 10 24   99.11     LegendNANA
18:00 4.0 2.1 88 10 26   99.08     LegendNANA
19:00 3.9 2.3 89 10 24   99.03     LegendNANA
20:00 4.1 2.0 87 11 23   98.99     LegendNANA
21:00 3.8 2.0 88 11 23   98.95     LegendNANA
22:00 3.6 1.7 88 10 27   98.86     LegendNANA
23:00 3.2 1.6 89 10 29   98.78     LegendNANA

Notes on Data Quality.

Legend

  • E = Estimated
  • M = Missing
  • NA = Not Available
  • ‡ = Partner data that is not subject to review by the National Climate Archives
Date modified: